Weather History for Hammond, LA

Change the Weather History Date:

Sunday, June 30, 2013

  Actual Average (KMSY) Record (KMSY)
Temperature  
Mean Temperature 82 °F -  
Max Temperature 95 °F 90 °F 100 °F (1954)
Min Temperature 68 °F 72 °F 62 °F (1974)
Cooling Degree Days 16    
Growing Degree Days 32 (Base 50)    
Moisture  
Dew Point 62 °F    
Average Humidity 58    
Maximum Humidity 94    
Minimum Humidity 23    
Precipitation  
Precipitation 0.00 in - - ()
Sea Level Pressure  
Sea Level Pressure 29.78 in    
Wind  
Wind Speed 3 mph (WNW)    
Max Wind Speed 17 mph    
Max Gust Speed 23 mph    
Visibility 10 miles    
Events      
Averages and records for this station are not official NWS values.
T = Trace of Precipitation, MM = Missing Value Source: NWS Daily Summary

Daily Weather History Graph

Daily Weather History Graph

Search for Another Location

Airport:

Trip Planner

Search our weather history database for the weather conditions in past years. The results will help you decide how hot, cold, wet, or windy it might be!

Date:

Astronomy

Jun. 30, 2013 Rise Set
Actual Time 6:02 AM CDT 8:08 PM CDT
Civil Twilight 5:35 AM CDT 8:35 PM CDT
Nautical Twilight 5:01 AM CDT 9:09 PM CDT
Astronomical Twilight 4:25 AM CDT 9:45 PM CDT
Moon 12:41 AM CDT (6/30) 1:40 PM CDT (6/30)
Length of Visible Light 15h 00m
Length of Day
14h 05m
Last Quarter, 45% of the Moon is Illuminated
Jun 30
Last Quarter
Jul 8
New
Jul 15
First Quarter
Jul 22
Full
Jul 29
Last Quarter

Hourly Weather History & Observations

Time (CDT) Temp. Heat Index Dew Point Humidity Pressure Visibility Wind Dir Wind Speed Gust Speed Precip Events Conditions
12:15 AM 73.4 °F - 68.0 °F 83% 29.78 in 10.0 mi Calm Calm - N/A   Clear
12:35 AM 71.6 °F - 68.0 °F 88% 29.78 in 10.0 mi Calm Calm - N/A   Clear
12:55 AM 73.4 °F - 69.8 °F 88% 29.78 in 10.0 mi Calm Calm - N/A   Clear
1:15 AM 73.4 °F - 69.8 °F 88% 29.78 in 10.0 mi Calm Calm - N/A   Clear
1:35 AM 71.6 °F - 68.0 °F 88% 29.77 in 10.0 mi Calm Calm - N/A   Clear
1:55 AM 71.6 °F - 68.0 °F 88% 29.77 in 10.0 mi Calm Calm - N/A   Clear
2:15 AM 71.6 °F - 69.8 °F 94% 29.76 in 10.0 mi Calm Calm - N/A   Clear
2:35 AM 71.6 °F - 68.0 °F 88% 29.75 in 10.0 mi Calm Calm - N/A   Clear
2:55 AM 69.8 °F - 66.2 °F 88% 29.75 in 7.0 mi Calm Calm - N/A   Clear
3:15 AM 69.8 °F - 66.2 °F 88% 29.74 in 7.0 mi North 3.5 mph - N/A   Clear
3:35 AM 71.6 °F - 68.0 °F 88% 29.75 in 10.0 mi Calm Calm - N/A   Clear
3:55 AM 69.8 °F - 68.0 °F 94% 29.75 in 10.0 mi Calm Calm - N/A   Clear
4:15 AM 69.8 °F - 66.2 °F 88% 29.75 in 4.0 mi Calm Calm - N/A   Clear
4:35 AM 69.8 °F - 66.2 °F 88% 29.76 in 10.0 mi Calm Calm - N/A   Clear
4:55 AM 69.8 °F - 66.2 °F 88% 29.77 in 7.0 mi Calm Calm - N/A   Clear
5:15 AM 68.0 °F - 64.4 °F 88% 29.77 in 7.0 mi Calm Calm - N/A   Clear
5:35 AM 68.0 °F - 66.2 °F 94% 29.77 in 10.0 mi Calm Calm - N/A   Clear
5:55 AM 68.0 °F - 66.2 °F 94% 29.77 in 10.0 mi Calm Calm - N/A   Clear
6:15 AM 68.0 °F - 66.2 °F 94% 29.77 in 10.0 mi Calm Calm - N/A   Clear
6:35 AM 69.8 °F - 66.2 °F 88% 29.77 in 10.0 mi Calm Calm - N/A   Clear
6:55 AM 71.6 °F - 68.0 °F 88% 29.77 in 10.0 mi Calm Calm - N/A   Clear
7:15 AM 73.4 °F - 68.0 °F 83% 29.78 in 10.0 mi Calm Calm - N/A   Clear
7:35 AM 75.2 °F - 69.8 °F 83% 29.79 in 10.0 mi West 4.6 mph - N/A   Clear
7:55 AM 77.0 °F - 69.8 °F 78% 29.79 in 10.0 mi WNW 4.6 mph - N/A   Clear
8:15 AM 78.8 °F - 69.8 °F 74% 29.79 in 10.0 mi Calm Calm - N/A   Clear
8:35 AM 80.6 °F 83.2 °F 68.0 °F 65% 29.79 in 10.0 mi West 3.5 mph - N/A   Clear
8:55 AM 82.4 °F 85.4 °F 68.0 °F 62% 29.79 in 10.0 mi NW 4.6 mph - N/A   Clear
9:15 AM 84.2 °F 86.6 °F 66.2 °F 55% 29.79 in 10.0 mi West 5.8 mph - N/A   Clear
9:35 AM 86.0 °F 88.2 °F 66.2 °F 51% 29.79 in 10.0 mi West 9.2 mph - N/A   Clear
9:55 AM 86.0 °F 88.2 °F 66.2 °F 51% 29.79 in 10.0 mi West 8.1 mph - N/A   Clear
10:15 AM 87.8 °F 89.4 °F 64.4 °F 46% 29.79 in 10.0 mi WNW 5.8 mph - N/A   Clear
10:35 AM 89.6 °F 92.2 °F 66.2 °F 46% 29.79 in 10.0 mi West 4.6 mph - N/A   Clear
10:55 AM 89.6 °F 90.1 °F 62.6 °F 40% 29.79 in 10.0 mi WNW 8.1 mph - N/A   Clear
11:15 AM 91.4 °F 91.4 °F 60.8 °F 36% 29.79 in 10.0 mi West 9.2 mph - N/A   Clear
11:35 AM 91.4 °F 91.4 °F 60.8 °F 36% 29.79 in 10.0 mi SW 9.2 mph - N/A   Clear
11:55 AM 91.4 °F 91.4 °F 60.8 °F 36% 29.78 in 10.0 mi WSW 8.1 mph - N/A   Scattered Clouds
12:15 PM 91.4 °F 91.4 °F 60.8 °F 36% 29.78 in 10.0 mi West 6.9 mph - N/A   Scattered Clouds
12:35 PM 93.2 °F 93.3 °F 60.8 °F 34% 29.77 in 10.0 mi West 10.4 mph - N/A   Scattered Clouds
12:55 PM 93.2 °F 91.9 °F 57.2 °F 30% 29.77 in 10.0 mi NW 12.7 mph 18.4 mph N/A   Scattered Clouds
1:15 PM 91.4 °F 89.9 °F 57.2 °F 31% 29.76 in 10.0 mi West 12.7 mph - N/A   Scattered Clouds
1:35 PM 93.2 °F 90.8 °F 53.6 °F 26% 29.76 in 10.0 mi West 13.8 mph - N/A   Mostly Cloudy
1:55 PM 95.0 °F 93.0 °F 55.4 °F 26% 29.76 in 10.0 mi West 10.4 mph 17.3 mph N/A   Scattered Clouds
2:15 PM 95.0 °F 92.7 °F 53.6 °F 25% 29.76 in 10.0 mi WNW 15.0 mph 19.6 mph N/A   Scattered Clouds
2:35 PM 95.0 °F - 51.8 °F 23% 29.75 in 10.0 mi NW 10.4 mph - N/A   Clear
2:55 PM 95.0 °F 92.7 °F 53.6 °F 25% 29.75 in 10.0 mi West 13.8 mph 19.6 mph N/A   Scattered Clouds
3:15 PM 95.0 °F 92.7 °F 53.6 °F 25% 29.76 in 10.0 mi NW 12.7 mph 18.4 mph N/A   Scattered Clouds
3:35 PM 95.0 °F - 51.8 °F 23% 29.76 in 10.0 mi WNW 17.3 mph 20.7 mph N/A   Scattered Clouds
3:55 PM 93.2 °F - 51.8 °F 24% 29.76 in 10.0 mi NW 10.4 mph 23.0 mph N/A   Clear
4:15 PM 93.2 °F - 51.8 °F 24% 29.76 in 10.0 mi NW 16.1 mph - N/A   Clear
4:35 PM 93.2 °F - 50.0 °F 23% 29.76 in 10.0 mi WNW 12.7 mph 17.3 mph N/A   Clear
4:55 PM 93.2 °F - 50.0 °F 23% 29.76 in 10.0 mi WNW 10.4 mph 19.6 mph N/A   Clear
5:15 PM 93.2 °F - 50.0 °F 23% 29.76 in 10.0 mi WNW 15.0 mph - N/A   Clear
5:35 PM 91.4 °F - 50.0 °F 24% 29.76 in 10.0 mi NW 13.8 mph 17.3 mph N/A   Clear
5:55 PM 91.4 °F - 51.8 °F 26% 29.76 in 10.0 mi NW 8.1 mph 11.5 mph N/A   Clear
6:15 PM 91.4 °F - 51.8 °F 26% 29.76 in 10.0 mi NW 9.2 mph - N/A   Clear
6:35 PM 89.6 °F 87.3 °F 53.6 °F 29% 29.76 in 10.0 mi WNW 9.2 mph - N/A   Clear
6:55 PM 89.6 °F 87.7 °F 55.4 °F 31% 29.77 in 10.0 mi NW 6.9 mph - N/A   Clear
7:15 PM 87.8 °F 86.1 °F 55.4 °F 33% 29.77 in 10.0 mi NW 4.6 mph - N/A   Clear
7:35 PM 86.0 °F 84.9 °F 57.2 °F 37% 29.78 in 10.0 mi NW 4.6 mph - N/A   Clear
7:55 PM 82.4 °F 82.9 °F 60.8 °F 48% 29.79 in 10.0 mi Calm Calm - N/A   Clear
8:15 PM 82.4 °F 82.9 °F 60.8 °F 48% 29.79 in 10.0 mi Calm Calm - N/A   Clear
8:35 PM 78.8 °F - 62.6 °F 57% 29.79 in 10.0 mi Calm Calm - N/A   Clear
8:55 PM 78.8 °F - 62.6 °F 57% 29.80 in 10.0 mi Calm Calm - N/A   Clear
9:15 PM 77.0 °F - 64.4 °F 65% 29.81 in 10.0 mi Calm Calm - N/A   Clear
9:35 PM 75.2 °F - 64.4 °F 69% 29.81 in 10.0 mi Calm Calm - N/A   Clear
9:55 PM 73.4 °F - 64.4 °F 73% 29.82 in 10.0 mi Calm Calm - N/A   Clear
10:15 PM 73.4 °F - 64.4 °F 73% 29.82 in 10.0 mi Calm Calm - N/A   Clear
10:35 PM 73.4 °F - 64.4 °F 73% 29.82 in 10.0 mi NNW 3.5 mph - N/A   Clear
10:55 PM 73.4 °F - 64.4 °F 73% 29.82 in 10.0 mi Calm Calm - N/A   Clear
11:15 PM 73.4 °F - 64.4 °F 73% 29.83 in 10.0 mi Calm Calm - N/A   Clear
11:35 PM 73.4 °F - 64.4 °F 73% 29.83 in 10.0 mi Calm Calm - N/A   Clear
11:55 PM 73.4 °F - 64.4 °F 73% 29.84 in 10.0 mi Calm Calm - N/A   Clear